Home   Weather   Caledon   Past weeks
Flag for Canada

Past Weather in Caledon, Ontario, Canada — Yesterday and Last 2 Weeks

Now
43 °F

Overcast.


Feels Like: 35 °F
Forecast: 45 / 42 °F
Wind: 16 mph from Northwest

Location: Borden

Current Time: Oct 17, 2019 at 2:18:20 pm

Latest Report: Oct 17, 2019 at 1:00 pm


Visibility: 9 mi

Pressure: 29.67 "Hg

Humidity: 93%

Dew Point: 41 °F

Location of CaledonLocation

Past Weather in Caledon — Graph

°F

Caledon Temperature Yesterday

Maximum temperature yesterday: 50 °F (at 8:32 am)
Minimum temperature yesterday: 43 °F (at 10:00 pm)
Average temperature yesterday: 48 °F

High & Low Weather Summary for the Past Weeks

 TemperatureHumidityPressure
High70 °F (Oct 6, 1:00 pm)100% (Oct 3, 3:36 pm)30.45 "Hg (Oct 3, 3:36 pm)
Low25 °F (Oct 5, 5:00 am)23% (Oct 11, 4:00 pm)29.44 "Hg (Oct 17, 12:02 am)
Average46 °F81%30.04 "Hg
* Reported Oct 2 1:14 pm — Oct 17 1:00 pm, Caledon. Weather by CustomWeather, © 2019

Note: Actual official high and low records may vary slightly from our data, if they occured in-between our weather recording intervals... More about our weather records

Advertising

Caledon Weather History for the Previous 24 Hours

Scroll right to see more
 ConditionsComfort  
Time TempWeatherWind HumidityBarometerVisibility
1:00 pm
Thu, Oct 17
43 °FOvercast.16 mph93%29.67 "Hg9 mi
12:15 pm43 °FOvercast.17 mph100%29.64 "Hg5 mi
10:36 am43 °FDrizzle. Low clouds.15 mph93%29.60 "Hg3 mi
10:06 am43 °FDrizzle. Overcast.16 mph93%29.60 "Hg4 mi
9:00 am43 °FOvercast.12 mph93%29.60 "Hg9 mi
8:24 am43 °FOvercast.15 mph93%29.57 "Hg9 mi
8:00 am43 °FLight rain. Overcast.14 mph93%29.58 "Hg9 mi
7:44 am43 °FLight rain. Overcast.15 mph93%29.56 "Hg9 mi
7:00 am43 °FOvercast.17 mph93%29.55 "Hg9 mi
6:00 am43 °FLight rain. Overcast.12 mph93%29.54 "Hg9 mi
5:27 am43 °FLight rain. Overcast.16 mph93%29.51 "Hg9 mi
5:22 am43 °FOvercast.15 mph93%29.51 "Hg9 mi
5:00 am43 °FLight rain. Overcast.15 mph93%29.52 "Hg9 mi
4:45 am43 °FLight rain. Overcast.15 mph93%29.51 "Hg9 mi
4:00 am43 °FLow clouds.12 mph100%29.51 "Hg9 mi
3:00 am46 °FLow clouds.15 mph93%29.50 "Hg9 mi
2:39 am46 °FLight rain. Overcast.13 mph93%29.47 "Hg9 mi
2:00 am43 °FPassing clouds.3 mph100%29.47 "Hg9 mi
1:10 am45 °FOvercast.3 mph100%29.45 "Hg9 mi
12:39 am46 °FLight rain. Low clouds.3 mph93%29.45 "Hg9 mi
12:02 am45 °FLight rain. Passing clouds.13 mph100%29.44 "Hg9 mi
11:38 pm
Wed, Oct 16
45 °FLight rain. Overcast.No wind100%29.45 "Hg5 mi
11:05 pm43 °FLight rain. Overcast.7 mph93%29.45 "Hg2 mi
10:36 pm43 °FLight rain. Overcast.No wind93%29.46 "Hg8 mi
10:00 pm43 °FOvercast.No wind100%29.47 "Hg9 mi
9:00 pm45 °FMostly cloudy.2 mph93%29.47 "Hg9 mi
8:46 pm45 °FOvercast.3 mph93%29.46 "Hg9 mi
8:00 pm46 °FMostly cloudy.5 mph87%29.49 "Hg9 mi
7:00 pm46 °FMostly cloudy.7 mph87%29.48 "Hg9 mi
6:00 pm48 °FMostly cloudy.5 mph87%29.48 "Hg9 mi
5:23 pm48 °FOvercast.6 mph87%29.47 "Hg9 mi
5:05 pm48 °FLight rain. Overcast.6 mph87%29.47 "Hg9 mi
4:26 pm48 °FMostly cloudy.7 mph87%29.48 "Hg9 mi
4:00 pm48 °FOvercast.6 mph87%29.49 "Hg9 mi
3:09 pm48 °FOvercast.7 mph94%29.49 "Hg9 mi
2:38 pm48 °FOvercast.7 mph94%29.49 "Hg9 mi
2:00 pm48 °FOvercast.6 mph94%29.51 "Hg9 mi
Weather by CustomWeather, © 2019

See weather overview